DW1114 Weather Reports


Display with metric or nautical units.
time (UTC)temp
F
wind
direction
speed
MPH
gust
MPH
rain 1hr
in
rain 24hr
in
rain mn
in
humidity
%
barometer
mb
20260903132903 83 264 3.0 8.0 0.00 0.00 0.00 1016.3
20260903132403 83 250 2.0 9.0 0.00 0.00 0.00 1016.6
20260903131903 83 263 3.0 9.0 0.00 0.00 0.00 1016.6
20260903131403 83 225 1.0 6.0 0.00 0.00 0.00 1016.0
20260903130903 83 282 3.0 12.0 0.00 0.00 0.00 1016.3
20260903130403 82 256 2.0 12.0 0.00 0.00 0.00 1016.3
20260903125902 82 205 1.0 7.0 0.00 0.00 0.00 1016.6
20260903125424 82 245 2.0 7.0 0.00 0.00 0.00 1016.6
20260903124903 81 190 1.0 6.0 0.00 0.00 0.00 1016.3
20260903124425 81 242 1.0 4.0 0.00 0.00 0.00 1016.3
20260903123903 81 232 1.0 6.0 0.00 0.00 0.00 1016.6
20260903123403 81 284 1.0 6.0 0.00 0.00 0.00 1016.3
20260903122923 80 227 0.0 5.0 0.00 0.00 0.00 1016.0
20260903122403 80 249 0.0 5.0 0.00 0.00 0.00 1016.0
20260903121903 80 184 0.0 3.0 0.00 0.00 0.00 1016.0
20260903121403 79 205 1.0 3.0 0.00 0.00 0.00 1016.3
20260903120902 79 199 1.0 3.0 0.00 0.00 0.00 1016.3
20260903120403 79 198 1.0 6.0 0.00 0.00 0.00 1016.3
20260903115924 79 258 0.0 6.0 0.00 0.00 0.00 1016.3
20260903115424 79 211 0.0 3.0 0.00 0.00 0.00 1015.6
20260903114902 79 204 0.0 3.0 0.00 0.00 0.00 1016.0
20260903114403 79 199 2.0 4.0 0.00 0.00 0.00 1015.6
20260903113904 78 201 1.0 6.0 0.00 0.00 0.00 1015.6
20260903113403 78 183 0.0 6.0 0.00 0.00 0.00 1016.3
20260903112903 78 203 2.0 3.0 0.00 0.00 0.00 1016.0
20260903112403 78 196 2.0 3.0 0.00 0.00 0.00 1016.0
20260903111903 78 199 2.0 3.0 0.00 0.00 0.00 1016.0
20260903111402 78 202 2.0 3.0 0.00 0.00 0.00 1016.0
20260903110903 79 202 2.0 3.0 0.00 0.00 0.00 1016.0
20260903110403 78 199 2.0 3.0 0.00 0.00 0.00 1015.6
20260903105903 79 197 2.0 3.0 0.00 0.00 0.00 1015.6
20260903105403 79 200 1.0 3.0 0.00 0.00 0.00 1015.6
20260903104902 79 203 2.0 3.0 0.00 0.00 0.00 1016.0
20260903104424 79 203 2.0 6.0 0.00 0.00 0.00 1016.0
20260903103924 79 211 0.0 6.0 0.00 0.00 0.00 1016.0
20260903103402 79 194 0.0 3.0 0.00 0.00 0.00 1016.0
20260903102903 79 202 0.0 3.0 0.00 0.00 0.00 1015.6
20260903102403 80 198 0.0 3.0 0.00 0.00 0.00 1016.0
20260903101903 79 200 0.0 3.0 0.00 0.00 0.00 1016.0
20260903101403 79 214 0.0 5.0 0.00 0.00 0.00 1016.0
20260903100903 80 219 0.0 6.0 0.00 0.00 0.00 1016.0
20260903100424 80 223 0.0 6.0 0.00 0.00 0.00 1015.6
20260903095902 79 237 0.0 5.0 0.00 0.00 0.00 1015.6
20260903095403 80 265 0.0 5.0 0.00 0.00 0.00 1016.0
20260903094904 79 197 0.0 6.0 0.00 0.00 0.00 1015.6
20260903094403 79 273 0.0 6.0 0.00 0.00 0.00 1015.3
20260903093924 79 187 0.0 6.0 0.00 0.00 0.00 1015.3
20260903093403 79 217 0.0 5.0 0.00 0.00 0.00 1016.3
20260903092903 79 184 0.0 6.0 0.00 0.00 0.00 1016.0
20260903092403 80 249 0.0 6.0 0.00 0.00 0.00 1016.0
20260903091924 80 210 0.0 6.0 0.00 0.00 0.00 1015.6
20260903091403 80 255 0.0 6.0 0.00 0.00 0.00 1016.6
20260903090903 80 269 0.0 6.0 0.00 0.00 0.00 1016.3
20260903090403 80 215 0.0 5.0 0.00 0.00 0.00 1016.3
20260903085903 80 209 0.0 5.0 0.00 0.00 0.00 1016.0
20260903085403 80 208 0.0 6.0 0.00 0.00 0.00 1016.0
20260903084903 80 193 0.0 6.0 0.00 0.00 0.00 1016.0
20260903084403 80 276 0.0 6.0 0.00 0.00 0.00 1016.0
20260903083903 80 261 0.0 6.0 0.00 0.00 0.00 1016.0
20260903083403 80 220 0.0 6.0 0.00 0.00 0.00 1016.0
20260903082903 80 181 0.0 6.0 0.00 0.00 0.00 1016.0
20260903082403 80 202 0.0 3.0 0.00 0.00 0.00 1015.6
20260903081903 80 212 0.0 5.0 0.00 0.00 0.00 1015.6
20260903081403 80 204 0.0 5.0 0.00 0.00 0.00 1015.6
20260903080924 80 206 0.0 4.0 0.00 0.00 0.00 1016.0
20260903080403 80 197 0.0 4.0 0.00 0.00 0.00 1016.0
20260903075903 80 213 0.0 4.0 0.00 0.00 0.00 1015.6
20260903075404 80 202 0.0 3.0 0.00 0.00 0.00 1016.3
20260903074902 80 202 0.0 3.0 0.00 0.00 0.00 1016.3
20260903074403 80 252 0.0 3.0 0.00 0.00 0.00 1016.3
20260903073903 80 208 0.0 5.0 0.00 0.00 0.00 1016.3
20260903073403 80 218 0.0 5.0 0.00 0.00 0.00 1016.0
20260903072903 80 202 0.0 3.0 0.00 0.00 0.00 1015.6
20260903072405 81 191 0.0 5.0 0.00 0.00 0.00 1016.0
20260903071904 81 191 0.0 5.0 0.00 0.00 0.00 1016.0
20260903071403 81 207 0.0 6.0 0.00 0.00 0.00 1016.3
20260903070902 81 225 0.0 6.0 0.00 0.00 0.00 1016.0
20260903070403 81 201 0.0 6.0 0.00 0.00 0.00 1016.0
20260903065902 81 203 0.0 6.0 0.00 0.00 0.00 1015.6
20260903065403 81 191 0.0 6.0 0.00 0.00 0.00 1016.0
20260903064903 81 224 0.0 6.0 0.00 0.00 0.00 1016.0
20260903064424 82 184 0.0 4.0 0.00 0.00 0.00 1016.0
20260903063902 82 195 0.0 3.0 0.00 0.00 0.00 1016.3
20260903063424 82 213 0.0 6.0 0.00 0.00 0.00 1016.3
20260903062903 82 216 0.0 6.0 0.00 0.00 0.00 1015.6
20260903062424 82 229 0.0 2.0 0.00 0.00 0.00 1016.3
20260903061945 82 263 0.0 2.0 0.00 0.00 0.00 1016.0
20260903061403 82 222 0.0 6.0 0.00 0.00 0.00 1016.0
20260903060902 82 229 0.0 6.0 0.00 0.00 0.00 1016.0
20260903060404 82 193 0.0 6.0 0.00 0.00 0.00 1016.3
20260903055903 81 272 0.0 6.0 0.00 0.00 0.00 1016.0
20260903055446 81 213 0.0 6.0 0.00 0.00 0.00 1016.0
20260903054903 81 216 0.0 6.0 0.00 0.00 0.00 1016.0
20260903054424 81 231 0.0 6.0 0.00 0.00 0.00 1016.0
20260903053903 81 226 0.0 5.0 0.00 0.00 0.00 1015.6
20260903053424 82 205 0.0 3.0 0.00 0.00 0.00 1015.6
20260903052903 82 202 0.0 3.0 0.00 0.00 0.00 1015.6
20260903052424 82 209 0.0 3.0 0.00 0.00 0.00 1016.0
20260903051902 82 200 0.0 4.0 0.00 0.00 0.00 1015.6
20260903051403 82 212 0.0 5.0 0.00 0.00 0.00 1015.6
20260903050903 82 202 0.0 5.0 0.00 0.00 0.00 1015.6
20260903050403 82 210 0.0 6.0 0.00 0.00 0.00 1016.0
20260903045903 83 202 0.0 6.0 0.00 0.00 0.00 1016.0
20260903045424 83 196 1.0 6.0 0.00 0.00 0.00 1015.3
20260903044924 83 185 0.0 6.0 0.00 0.00 0.00 1015.6
20260903044403 83 220 0.0 4.0 0.00 0.00 0.00 1015.6
20260903043902 83 206 0.0 4.0 0.00 0.00 0.00 1015.6
20260903043403 83 208 0.0 5.0 0.00 0.00 0.00 1015.3
20260903042902 83 189 0.0 6.0 0.00 0.00 0.00 1015.3
20260903042424 83 198 0.0 6.0 0.00 0.00 0.00 1015.3
20260903041903 83 190 0.0 5.0 0.00 0.00 0.00 1014.9
20260903041403 83 207 0.0 6.0 0.00 0.00 0.00 1015.6
20260903040903 83 212 0.0 6.0 0.00 0.00 0.00 1015.6
20260903040424 83 199 0.0 3.0 0.00 0.00 0.00 1015.3
20260903035903 83 210 0.0 3.0 0.00 0.00 0.00 1016.0
20260903035425 83 213 0.0 6.0 0.00 0.00 0.00 1015.3
20260903034903 84 220 0.0 6.0 0.00 0.00 0.00 1015.3
20260903034402 84 199 0.0 6.0 0.00 0.00 0.00 1015.3
20260903033903 84 184 0.0 6.0 0.00 0.00 0.00 1016.0
20260903033402 84 202 0.0 6.0 0.00 0.00 0.00 1015.6
20260903032903 84 188 0.0 6.0 0.00 0.00 0.00 1015.3
20260903032402 84 228 0.0 6.0 0.00 0.00 0.00 1015.3
20260903031903 84 188 0.0 6.0 0.00 0.00 0.00 1015.6
20260903031403 84 221 0.0 4.0 0.00 0.00 0.00 1015.3
20260903030903 84 202 0.0 4.0 0.00 0.00 0.00 1016.0
20260903030403 84 211 0.0 2.0 0.00 0.00 0.00 1016.3
20260903025923 84 202 0.0 6.0 0.00 0.00 0.00 1015.6
20260903025403 84 197 0.0 6.0 0.00 0.00 0.00 1015.6
20260903024902 84 192 0.0 6.0 0.00 0.00 0.00 1015.6
20260903024403 85 202 0.0 6.0 0.00 0.00 0.00 1015.6
20260903023903 85 178 0.0 6.0 0.00 0.00 0.00 1016.0
20260903023423 85 190 0.0 3.0 0.00 0.00 0.00 1016.0
20260903022903 85 194 1.0 3.0 0.00 0.00 0.00 1016.0
20260903022403 85 200 2.0 3.0 0.00 0.00 0.00 1016.3
20260903021903 85 187 0.0 4.0 0.00 0.00 0.00 1016.3
20260903021424 85 191 0.0 4.0 0.00 0.00 0.00 1016.3
20260903020902 85 191 0.0 5.0 0.00 0.00 0.00 1016.0
20260903020403 86 190 0.0 5.0 0.00 0.00 0.00 1016.3
20260903015903 85 199 0.0 5.0 0.00 0.00 0.00 1015.6
20260903015403 86 206 0.0 5.0 0.00 0.00 0.00 1016.0
20260903014903 86 214 0.0 1.0 0.00 0.00 0.00 1016.0
20260903014424 86 191 0.0 4.0 0.00 0.00 0.00 1016.0
20260903013903 86 217 0.0 4.0 0.00 0.00 0.00 1016.3
20260903013403 86 204 0.0 6.0 0.00 0.00 0.00 1016.0
20260903012903 86 201 0.0 6.0 0.00 0.00 0.00 1015.6
20260903012403 86 221 0.0 6.0 0.00 0.00 0.00 1016.0
20260903011903 86 212 0.0 5.0 0.00 0.00 0.00 1016.6
20260903011402 86 210 0.0 6.0 0.00 0.00 0.00 1015.6
20260903010924 86 151 0.0 6.0 0.00 0.00 0.00 1015.6
20260903010402 86 174 0.0 2.0 0.00 0.00 0.00 1015.6
20260903005903 86 195 0.0 3.0 0.00 0.00 0.00 1014.9
20260903005402 86 208 0.0 3.0 0.00 0.00 0.00 1015.3
20260903004924 86 195 0.0 5.0 0.00 0.00 0.00 1015.3
20260903004403 87 198 0.0 5.0 0.00 0.00 0.00 1015.6
20260903003903 87 224 0.0 6.0 0.00 0.00 0.00 1016.0
20260903003403 87 237 0.0 6.0 0.00 0.00 0.00 1015.6
20260903002903 87 254 0.0 6.0 0.00 0.00 0.00 1015.3
20260903002424 87 275 1.0 6.0 0.00 0.00 0.00 1015.3
20260903001903 87 195 0.0 4.0 0.00 0.00 0.00 1014.9
20260903001403 87 260 1.0 6.0 0.00 0.00 0.00 1014.9
20260903000902 88 353 0.0 6.0 0.00 0.00 0.00 1016.0
20260903000424 88 205 0.0 6.0 0.00 0.00 0.00 1016.3
20260902235924 88 186 0.0 6.0 0.00 0.00 0.00 1016.0
20260902235403 89 194 0.0 5.0 0.00 0.00 0.00 1015.3
20260902234903 89 228 1.0 7.0 0.00 0.00 0.00 1015.3
20260902234403 89 224 2.0 7.0 0.00 0.00 0.00 1015.6
20260902233902 90 199 0.0 6.0 0.00 0.00 0.00 1015.3
20260902233403 90 218 1.0 5.0 0.00 0.00 0.00 1015.6
20260902232903 90 225 1.0 5.0 0.00 0.00 0.00 1015.6
20260902232403 90 249 0.0 8.0 0.00 0.00 0.00 1015.6
20260902231903 90 267 3.0 8.0 0.00 0.00 0.00 1015.6
20260902231402 91 232 3.0 6.0 0.00 0.00 0.00 1015.6
20260902230903 91 227 2.0 6.0 0.00 0.00 0.00 1015.6
20260902230403 91 233 2.0 9.0 0.00 0.00 0.00 1016.0
20260902225903 92 252 3.0 9.0 0.00 0.00 0.00 1015.3
20260902225402 94 193 1.0 5.0 0.00 0.00 0.00 1016.0
20260902224924 94 234 3.0 8.0 0.00 0.00 0.00 1016.0
20260902224403 95 248 3.0 8.0 0.00 0.00 0.00 1016.0
20260902223903 95 278 3.0 8.0 0.00 0.00 0.00 1015.6
20260902223424 95 206 2.0 9.0 0.00 0.00 0.00 1015.3
20260902222903 95 275 2.0 9.0 0.00 0.00 0.00 1015.3
20260902222403 95 257 2.0 9.0 0.00 0.00 0.00 1015.3
20260902221903 95 189 2.0 12.0 0.00 0.00 0.00 1015.6
20260902221424 95 271 4.0 12.0 0.00 0.00 0.00 1015.3
20260902220903 95 191 2.0 9.0 0.00 0.00 0.00 1014.9
20260902220424 95 254 3.0 9.0 0.00 0.00 0.00 1015.3
20260902215903 96 242 3.0 9.0 0.00 0.00 0.00 1014.9
20260902215424 96 227 3.0 7.0 0.00 0.00 0.00 1015.3
20260902214904 95 197 2.0 9.0 0.00 0.00 0.00 1016.0
20260902214404 95 192 3.0 12.0 0.00 0.00 0.00 1015.6
20260902213904 95 224 3.0 13.0 0.00 0.00 0.00 1015.3
20260902213402 95 271 4.0 13.0 0.00 0.00 0.00 1015.6
20260902212403 95 249 3.0 11.0 0.00 0.00 0.00 1015.6
20260902211903 95 274 3.0 13.0 0.00 0.00 0.00 1015.6
20260902211425 95 277 6.0 13.0 0.00 0.00 0.00 1015.3
20260902210903 95 255 3.0 10.0 0.00 0.00 0.00 1014.9
20260902210403 95 293 2.0 11.0 0.00 0.00 0.00 1014.9
20260902205903 95 281 2.0 12.0 0.00 0.00 0.00 1015.3
20260902205403 95 284 7.0 12.0 0.00 0.00 0.00 1015.6
20260902204924 95 271 4.0 11.0 0.00 0.00 0.00 1015.3
20260902204403 94 194 3.0 9.0 0.00 0.00 0.00 1015.3
20260902203903 94 265 4.0 8.0 0.00 0.00 0.00 1016.0
20260902203403 94 265 2.0 7.0 0.00 0.00 0.00 1016.0
20260902202903 94 260 4.0 12.0 0.00 0.00 0.00 1015.6
20260902202403 94 258 4.0 12.0 0.00 0.00 0.00 1016.0
20260902201903 93 258 4.0 10.0 0.00 0.00 0.00 1016.0
20260902201403 94 272 4.0 12.0 0.00 0.00 0.00 1015.6
20260902200903 94 281 5.0 12.0 0.00 0.00 0.00 1016.0
20260902200403 93 279 6.0 12.0 0.00 0.00 0.00 1015.6
20260902195923 93 281 2.0 11.0 0.00 0.00 0.00 1015.6
20260902195403 94 297 4.0 9.0 0.00 0.00 0.00 1016.0
20260902194902 93 199 2.0 10.0 0.00 0.00 0.00 1015.6
20260902194403 94 218 2.0 10.0 0.00 0.00 0.00 1016.3
20260902193903 94 260 4.0 11.0 0.00 0.00 0.00 1016.0
20260902193403 93 275 4.0 11.0 0.00 0.00 0.00 1016.0
20260902192903 94 287 4.0 12.0 0.00 0.00 0.00 1016.3
20260902192402 94 285 4.0 12.0 0.00 0.00 0.00 1016.0
20260902191903 93 281 4.0 14.0 0.00 0.00 0.00 1016.0
20260902191402 93 245 4.0 14.0 0.00 0.00 0.00 1016.3
20260902190903 93 275 4.0 10.0 0.00 0.00 0.00 1015.6
20260902190403 93 198 4.0 7.0 0.00 0.00 0.00 1016.0
20260902185903 94 212 2.0 14.0 0.00 0.00 0.00 1016.0
20260902185424 93 271 4.0 14.0 0.00 0.00 0.00 1017.0
20260902184902 93 258 3.0 9.0 0.00 0.00 0.00 1016.6
20260902184403 93 288 2.0 12.0 0.00 0.00 0.00 1016.6
20260902183903 92 244 3.0 12.0 0.00 0.00 0.00 1016.3
20260902183445 92 225 2.0 9.0 0.00 0.00 0.00 1016.6
20260902182903 92 281 4.0 9.0 0.00 0.00 0.00 1016.6
20260902182424 92 257 3.0 10.0 0.00 0.00 0.00 1017.0
20260902181903 93 278 4.0 10.0 0.00 0.00 0.00 1017.0
20260902181403 93 263 5.0 10.0 0.00 0.00 0.00 1016.6
20260902180903 93 286 3.0 7.0 0.00 0.00 0.00 1016.6
20260902180403 92 233 3.0 10.0 0.00 0.00 0.00 1016.3
20260902175903 91 280 5.0 10.0 0.00 0.00 0.00 1016.6
20260902175425 92 257 3.0 7.0 0.00 0.00 0.00 1016.6
20260902174903 92 194 2.0 7.0 0.00 0.00 0.00 1016.3
20260902174403 91 267 3.0 7.0 0.00 0.00 0.00 1017.0
20260902173903 91 267 3.0 9.0 0.00 0.00 0.00 1016.6
20260902173403 91 293 5.0 9.0 0.00 0.00 0.00 1017.0
20260902172924 91 272 4.0 10.0 0.00 0.00 0.00 1017.3
20260902172403 91 290 5.0 10.0 0.00 0.00 0.00 1017.3
20260902171902 91 256 2.0 13.0 0.00 0.00 0.00 1017.3
20260902171424 91 295 3.0 13.0 0.00 0.00 0.00 1017.0
20260902170902 91 295 7.0 12.0 0.00 0.00 0.00 1017.3
20260902170403 91 271 5.0 12.0 0.00 0.00 0.00 1017.6
20260902165903 91 188 2.0 9.0 0.00 0.00 0.00 1017.6
20260902165402 91 199 1.0 11.0 0.00 0.00 0.00 1017.0
20260902164903 90 278 3.0 11.0 0.00 0.00 0.00 1017.3
20260902164402 91 287 4.0 8.0 0.00 0.00 0.00 1018.0
20260902163903 91 262 2.0 9.0 0.00 0.00 0.00 1017.6
20260902163403 90 259 3.0 9.0 0.00 0.00 0.00 1018.0
20260902162903 90 255 3.0 9.0 0.00 0.00 0.00 1017.6
20260902162445 90 262 2.0 9.0 0.00 0.00 0.00 1017.6
20260902161924 89 285 4.0 10.0 0.00 0.00 0.00 1018.0
20260902161403 90 291 4.0 10.0 0.00 0.00 0.00 1017.6
20260902160903 89 291 6.0 9.0 0.00 0.00 0.00 1017.6
20260902160403 89 279 5.0 10.0 0.00 0.00 0.00 1017.6
20260902155903 88 271 3.0 10.0 0.00 0.00 0.00 1017.6
20260902155402 88 233 3.0 12.0 0.00 0.00 0.00 1017.3
20260902154903 88 261 4.0 12.0 0.00 0.00 0.00 1017.3
20260902154402 88 303 4.0 7.0 0.00 0.00 0.00 1018.0
20260902153903 88 263 3.0 7.0 0.00 0.00 0.00 1017.6
20260902153403 88 183 3.0 6.0 0.00 0.00 0.00 1018.0
20260902152903 88 175 0.0 8.0 0.00 0.00 0.00 1018.0
20260902152403 87 219 1.0 8.0 0.00 0.00 0.00 1018.0
20260902151904 87 233 1.0 7.0 0.00 0.00 0.00 1018.0
20260902151403 87 279 2.0 7.0 0.00 0.00 0.00 1017.6
20260902150903 87 202 2.0 5.0 0.00 0.00 0.00 1018.0
20260902150403 86 201 2.0 9.0 0.00 0.00 0.00 1017.6
20260902145924 86 276 3.0 9.0 0.00 0.00 0.00 1017.6
20260902145403 86 202 1.0 7.0 0.00 0.00 0.00 1018.0
20260902144903 86 215 2.0 7.0 0.00 0.00 0.00 1018.0
20260902144403 86 282 3.0 7.0 0.00 0.00 0.00 1018.0
20260902143902 85 280 3.0 6.0 0.00 0.00 0.00 1017.6
20260902143403 85 281 3.0 8.0 0.00 0.00 0.00 1018.0
20260902142904 85 289 1.0 8.0 0.00 0.00 0.00 1017.6
20260902142403 84 288 3.0 8.0 0.00 0.00 0.00 1017.6
20260902141924 84 292 4.0 8.0 0.00 0.00 0.00 1018.0
20260902141402 83 272 5.0 9.0 0.00 0.00 0.00 1018.3
20260902140903 83 290 6.0 9.0 0.00 0.00 0.00 1018.3
20260902140402 83 279 4.0 9.0 0.00 0.00 0.00 1018.0
20260902135903 83 295 5.0 10.0 0.00 0.00 0.00 1018.0
20260902135404 82 290 5.0 10.0 0.00 0.00 0.00 1017.3
20260902134903 83 249 3.0 9.0 0.00 0.00 0.00 1017.6
20260902134424 82 258 2.0 10.0 0.00 0.00 0.00 1018.0
20260902133902 83 291 4.0 10.0 0.00 0.00 0.00 1018.0
20260902133403 82 285 2.0 9.0 0.00 0.00 0.00 1017.6